SCP
0 0 0 0 0 0 0 0 0 0 0 0 0 0 0 0 0 0 0 0 0 0 0 0 0 0 0 0 0 0 0 0 0 0 0 0 0 0 0 0 0 0 0
0 0 0 0 0 0 0 0 0 0 0 0 0 0 0 0 0 0 0 0 0 0 0 0 0 0 0 0 0 0 0 0 0 0 0 0 0 0 0 0 0 0 0
0 0 0 0 0 0 0 0 0 0 0 0 0 0 0 0 0 0 0 0 0 0 0 0 0 0 0 0 0 0 0 0 0 0 0 0 0 0 0 0 0 0 0
0 0 0 0 0 0 0 0 0 0 0 0 0 0 0 0 0 0 0 0 0 0 0 0 0 0 0 0 0 0 0 0 0 0 0 0 0 0 0 0 0 0 0
0 0 0 0 0 0 0 0 0 0 0 0 0 0 0 0 0 0 0 0 0 0 0 0 0 0 0 0 0 0 0 0 0 0 0 0 0 0 0 0 0 0 0
0 0 0 0 0 0 0 0 0 0 0 0 0 0 0 0 0 0 0 0 0 0 0 0 0 0 0 0 0 0 0 0 0 0 0 0 0 0 0 0 0 0 0
0 0 0 0 0 0 0 0 0 0 0 0 0 0 0 0 0 0 0 0 0 0 0 0 0 0 0 0 0 0 0 0 0 0 0 0 0 0 0 0 0 0 0
0 0 0 0 0 0 0 0 0 0 0 0 0 0 0 0 0 0 0 0 0 0 0 0 0 0 0 0 0 0 0 0 0 0 0 0 0 0 0 0 0 0 0
0 0 0 0 0 0 0 0 0 0 0 0 0 0 0 0 0 0 0 0 0 0 0 0 0 0 0 0 0 0 0 0 0 0 0 0 0 0 0 0 0 0 0
0 0 0 0 0 0 0 0 0 0 0 0 0 0 0 0 0 0 0 0 0 0 0 0 0 0 0 0 0 0 0 0 0 0 0 0 0 0 0 0 0 0 0
0 0 0 0 0 0 0 0 0 0 0 0 0 0 0 0 0 0 0 0 0 0 0 0 0 0 0 0 0 0 0 0 0 0 0 0 0 0 0 0 0 0 0
0 0 0 0 0 0 0 0 0 0 0 0 0 0 0 0 0 0 0 0 0 0 0 0 0 0 0 0 0 0 0 0 0 0 0 0 0 0 0 0 0 0 0
0 0 0 0 0 0 0 0 0 0 0 0 0 0 0 0 0 0 0 0 0 0 0 0 0 0 0 0 0 0 0 0 0 0 0 0 0 0 0 0 0 0 0
0 0 0 0 0 0 0 0 0 0 0 0 0 0 0 0 0 0 0 0 0 0 0 0 0 0 0 0 0 0 0 0 0 0 0 0 0 0 0 0 0 0 0
0 0 0 0 0 0 0 0 0 0 0 0 0 0 0 0 0 0 0 0 0 0 0 0 0 0 0 0 0 0 0 0 0 0 0 0 0 0 0 0 0 0 0
0 0 0 0 0 0 0 0 0 0 0 0 0 0 0 0 0 0 0 0 0 0 0 0 0 0 0 0 0 0 0 0 0 0 0 0 0 0 0 0 0 0 0
0 0 0 0 0 0 0 0 0 0 0 0 0 0 0 0 0 0 0 0 0 0 0 0 0 0 0 0 0 0 0 0 0 0 0 0 0 0 0 -0 -0 0 0
0 0 0 0 0 0 0 0 0 0 0 0 0 0 0 0 0 0 0 0 0 0 0 0 0 0 0 0 0 0 0 0 0 0 0 0 0 0 0 -0 -0 -0 -0
0 0 0 0 0 0 0 0 0 0 0 0 0 0 0 0 0 0 0 0 0 0 0 0 0 0 0 0 0 -0 -0 0 0 0 0 0 0 0 0 0 -0 -0 -0
0 0 0 0 0 0 0 0 0 0 0 0 0 0 0 0 0 0 0 0 0 0 0 0 0 0 0 0 0 0 0 0 0 0 0 0 0 0 0 0 -0 -0 -0
0 0 0 0 0 0 0 0 0 0 0 0 0 0 0 0 0 0 0 0 0 0 0 0 0 0 0 0 0 0 0 0 0 0 0 0 0 0 0 0 0 0 0
0 0 0 0 0 0 0 0 0 0 0 0 0 0 0 0 0 0 0 0 0 0 0 0 0 0 0 0 0 0 0 0 0 0 0 0 0 0 0 0 0 0 0
0 0 0 0 0 0 0 0 0 0 0 0 0 0 0 0 0 0 0 0 0 0 0 0 0 0 0 0 0 0 0 0 0 0 0 0 0 0 0 0 0 0 0
0 0 0 0 0 0 0 0 0 0 0 0 0 0 0 0 0 0 0 0 0 0 0 0 0 0 0 0 0 0 -0 -0 -0 0 0 0 0 0 0 0 0 0 0
0 0 0 0 0 0 0 0 0 0 0 0 0 0 0 0 0 0 0 0 0 0 0 0 0 0 0 0 0 0 0 -0 -0 -0 0 0 0 0 0 0 0 0 0
0 0 0 0 0 0 0 0 0 0 0 0 0 0 0 0 0 0 0 0 0 0 0 0 0 0 0 0 0 0 0 -0 -0 -0 0 0 0 0 0 0 0 0 0
Wind_Speed
15 13 12 11 10 9 9 11 10 8 8 7 6 5 4 3 3 3 4 4 7 8 8 10 12 10 9 7 8 10 11 13 20 24 21 17 15 14 14 14 16 19 20
14 12 12 11 11 10 9 10 10 9 7 7 6 4 4 4 4 5 5 6 8 9 10 11 12 10 12 10 10 12 12 13 17 24 23 21 22 18 17 18 18 18 18
13 13 13 13 13 12 10 9 9 9 8 7 6 6 5 5 5 5 6 7 8 9 10 12 13 13 14 12 14 14 13 14 15 18 22 19 19 17 18 18 20 17 20
14 15 15 14 12 10 9 9 10 10 9 8 7 6 5 5 6 6 7 8 8 9 11 13 14 15 16 16 14 15 15 16 16 17 18 18 18 17 16 16 17 14 16
16 16 14 12 11 10 10 10 11 10 9 8 7 6 5 5 6 7 7 8 9 10 12 13 14 16 21 20 17 16 16 15 15 17 18 18 17 16 16 14 17 15 17
16 15 14 14 13 12 12 12 12 11 10 9 8 7 6 6 10 12 10 7 9 11 12 13 15 17 20 27 30 30 27 22 19 19 18 20 21 20 18 16 16 17 19
15 15 15 15 14 14 13 13 13 12 10 9 8 7 7 8 12 12 12 8 9 11 13 14 13 14 17 19 24 30 28 31 33 26 25 24 23 21 21 22 19 19 20
15 15 16 16 15 14 14 13 12 10 9 8 7 7 6 7 11 11 11 9 9 12 14 16 17 17 17 21 21 21 21 21 25 22 23 24 23 22 22 23 22 22 23
18 19 19 18 17 16 15 14 12 10 9 8 7 6 7 8 10 10 11 6 7 12 14 14 15 17 24 29 23 22 23 21 25 33 36 36 38 39 33 21 19 19 20
20 19 18 18 18 17 16 14 10 10 9 8 7 7 7 7 10 11 11 3 6 10 10 12 15 18 26 30 22 21 23 22 20 22 26 28 27 28 35 26 19 19 19
16 16 17 17 17 16 14 12 11 9 8 7 6 6 7 8 9 9 10 4 6 8 9 10 11 23 29 31 27 18 23 25 20 19 18 17 16 16 18 19 19 18 20
15 16 16 15 14 13 15 13 11 10 8 6 6 6 5 5 4 6 10 11 12 7 9 10 14 27 30 29 22 23 30 25 13 14 14 14 13 13 14 17 20 21 21
16 16 15 14 12 13 14 14 12 9 7 6 6 5 4 3 2 6 9 13 15 9 10 19 24 27 25 19 22 28 21 13 13 13 14 14 14 15 16 16 17 19 21
15 15 15 15 13 12 11 11 11 10 9 7 6 5 4 2 2 4 4 4 9 10 9 13 20 21 18 19 17 16 13 13 14 14 15 15 15 15 15 15 15 14 14
16 15 14 13 14 13 11 9 10 9 9 8 5 4 4 3 4 6 4 3 4 6 7 4 7 9 10 11 12 12 13 14 14 14 14 15 15 15 14 14 15 13 14
17 16 13 11 10 11 12 10 12 12 14 12 11 7 4 3 3 5 8 11 11 14 7 5 8 9 11 12 13 14 14 15 15 15 15 15 15 15 15 14 14 14 14
19 17 14 14 12 12 12 12 12 10 12 12 11 9 6 2 2 5 9 10 10 11 4 5 8 10 11 12 13 14 15 16 17 16 16 15 15 15 15 14 14 14 14
18 18 16 13 13 12 12 12 11 11 10 7 6 8 5 3 4 7 10 8 5 6 4 5 7 9 11 12 13 14 15 16 16 17 16 15 15 15 14 14 13 14 15
17 15 15 14 13 12 11 10 10 10 9 7 4 4 3 4 6 8 9 3 2 4 5 6 7 9 11 12 13 14 16 16 18 18 16 16 15 14 14 14 14 17 16
15 19 17 15 15 13 12 11 10 9 8 7 6 4 1 3 2 3 3 2 2 3 5 6 8 9 10 11 13 14 16 17 18 17 18 16 15 14 15 17 15 14 14
13 15 18 15 13 13 12 11 10 9 8 7 5 4 6 3 2 1 2 2 2 4 5 7 8 9 10 11 12 15 19 17 17 18 19 18 17 15 14 14 15 15 15
12 12 12 13 13 12 11 10 9 8 8 7 5 3 6 4 2 1 2 3 3 3 4 6 8 8 8 11 13 16 18 19 19 20 21 20 18 17 16 15 14 14 14
13 14 13 12 12 13 11 9 8 8 7 6 5 4 2 2 1 2 3 3 4 5 5 6 7 8 8 10 12 14 17 19 19 22 23 22 20 18 17 17 18 17 15
13 15 15 13 12 10 10 9 8 7 7 5 4 3 3 2 1 2 3 3 4 5 6 7 7 10 13 13 12 14 17 20 19 18 25 23 23 20 19 18 18 18 16
13 13 13 12 11 10 9 9 8 7 6 5 4 3 2 1 0 2 3 3 5 6 9 9 7 8 13 17 17 18 25 28 22 20 20 20 24 23 23 21 20 20 18
13 13 12 11 10 9 9 8 8 7 5 4 3 2 2 1 1 2 3 4 5 7 8 8 9 13 16 13 17 25 28 28 26 25 21 19 23 22 25 20 25 21 23
Wind_Direction
191 185 182 179 173 172 173 166 158 153 146 144 149 164 176 187 207 236 250 266 270 273 276 276 276 280 281 278 275 272 268 267 273 283 289 293 293 289 289 286 285 282 279
186 177 176 168 167 173 175 166 153 144 138 143 148 165 192 212 220 236 253 261 266 272 275 277 280 283 280 279 274 270 267 264 267 277 284 291 291 292 289 283 282 279 279
176 174 172 172 174 176 173 162 147 140 141 150 159 182 204 220 230 242 252 259 262 268 273 276 278 278 277 273 271 269 268 267 265 269 277 282 285 287 286 281 277 275 274
174 175 177 177 173 168 165 159 148 145 151 163 180 189 202 223 240 249 253 258 263 268 272 273 275 275 276 277 275 271 271 271 268 268 270 274 276 278 276 278 279 272 273
174 177 176 165 159 160 164 157 148 151 157 167 178 190 210 227 238 241 247 255 265 271 273 275 277 275 275 277 277 274 272 270 270 269 269 271 272 274 273 274 277 281 279
174 173 162 160 161 164 165 161 157 160 165 174 184 196 212 227 242 245 250 259 274 279 282 281 279 275 276 279 280 280 277 276 274 270 269 266 268 269 271 270 274 278 280
167 163 161 162 164 168 169 165 165 167 169 176 185 198 215 235 248 255 269 281 282 280 281 282 280 280 281 282 283 283 281 277 274 272 272 269 270 269 270 271 269 270 273
163 163 163 164 166 169 172 171 166 163 168 173 185 194 211 235 249 261 277 280 277 277 277 279 284 289 292 295 294 290 286 280 275 272 269 270 268 268 267 269 272 273 273
171 172 170 168 169 172 177 171 163 162 166 169 172 186 211 234 254 265 273 254 268 279 281 286 294 299 299 302 301 295 292 287 284 280 275 271 267 265 262 262 262 263 268
180 174 169 168 171 176 174 164 160 160 158 161 179 191 208 224 245 260 281 254 271 285 291 298 300 302 305 308 304 298 294 293 290 287 280 272 268 267 267 263 265 265 268
167 164 166 169 172 171 161 154 151 149 149 165 179 201 215 222 238 268 291 278 277 294 304 306 303 307 313 314 313 304 298 302 300 297 291 277 265 258 256 255 254 255 260
157 162 165 166 165 163 152 145 144 144 150 168 189 206 210 204 227 277 300 309 314 310 309 308 306 312 319 320 319 312 314 316 307 300 297 293 284 270 262 257 254 250 249
158 162 162 161 162 160 151 146 145 149 159 172 181 185 181 182 249 297 308 319 326 324 310 313 317 319 322 321 318 321 323 314 307 305 303 299 295 293 286 273 262 254 250
161 162 163 164 161 158 148 148 151 157 163 169 176 178 176 183 230 256 263 308 328 323 320 322 322 320 322 321 319 320 317 312 311 308 306 303 299 294 288 285 275 260 253
164 166 169 171 164 156 150 154 154 155 159 159 163 168 169 188 250 307 346 336 335 330 345 322 311 320 326 322 319 319 318 317 315 313 309 304 300 297 293 292 286 272 257
170 171 171 170 167 153 141 141 151 149 160 165 167 170 183 217 295 4 6 4 1 358 0 320 326 329 327 323 321 321 321 320 318 315 310 305 303 301 298 294 291 283 268
174 170 168 166 164 153 146 145 146 151 163 161 162 165 166 187 57 42 28 26 11 8 2 324 327 326 323 320 319 320 320 318 317 316 312 308 305 301 298 294 289 288 281
170 168 166 164 158 152 150 148 149 155 160 159 164 160 140 119 94 61 47 38 354 351 337 326 322 319 319 319 319 320 318 318 320 319 316 313 309 303 297 291 286 280 283
170 168 162 155 148 145 143 142 146 152 153 151 152 145 74 82 84 56 54 48 321 329 329 319 313 314 315 314 315 316 315 316 320 321 320 318 313 306 298 290 284 280 276
168 163 156 148 142 140 141 142 145 148 148 152 154 160 141 94 72 31 19 316 328 329 321 315 312 310 312 313 316 316 314 316 321 325 324 321 316 308 301 294 285 278 271
157 155 148 139 136 139 141 143 145 146 149 149 152 162 135 126 109 38 293 303 332 327 317 312 307 308 312 316 319 319 316 317 323 328 328 324 320 314 307 297 288 278 270
143 145 142 132 130 132 134 135 137 140 146 145 135 119 111 108 102 274 285 308 319 307 295 292 296 299 309 317 320 320 320 321 328 334 332 327 324 320 315 307 296 285 273
142 137 126 120 121 126 124 125 131 139 142 133 128 131 122 121 175 264 296 315 322 315 299 287 290 300 313 318 316 318 320 322 331 336 334 329 328 326 323 317 309 297 281
134 126 121 121 123 124 126 130 135 135 130 126 131 145 155 169 221 286 312 322 323 309 294 290 291 301 313 320 318 319 318 322 334 339 335 333 331 330 330 327 321 313 301
121 118 120 122 124 126 130 132 129 124 125 132 145 159 166 174 295 327 329 327 319 306 302 299 298 312 318 316 317 320 322 331 346 347 340 338 337 336 338 337 337 334 330
113 113 113 115 119 125 128 126 124 127 130 139 154 162 158 105 2 341 331 324 318 309 305 305 309 315 316 315 320 325 331 340 353 353 347 344 344 343 346 347 348 349 346